COSMOS 970 DEB, 64994

Orbit data source: Space-Track

COSMOS 970 DEB, 64994 is space debris in LEO originally from a launch on Wed, 21 Dec 1977 UTC launched from the Tyuratam Missile And Space Complex (TTMTR). Debris objects in space refer to the collection of defunct objects orbiting the Earth. Examples of debris include non-operational satellites, rocket bodies, and fragments generated from explosions, collisions, or faulty payload assembly.

Loading next visibility...
Identifier
64994, 1977-121DF
Orbit
LEO
Country
Flag of CISCIS
Related business
Manufacturer
Unknown
Mission
Spacecraft
Bus & Motor
Unknown
Mass
Unknown
Launch date (UTC)
1977-12-21 (48 years ago)
Launch vehicle
Unknown
Launch site
Tyuratam Missile And Space Complex (TTMTR)
Object type
Payload
Rocket body
Debris
Shape & HBR
Unknown shape, 0.1 m
Radar Cross Section
Small (<0.1 m²)

Expand to show TLE details & history
Last TLE update: 11 hours ago

TLE from 11 hours ago
0 COSMOS 970 DEB
1 64994U 77121DF  26171.37482609  .00000153  00000-0  23629-3 0  9990
2 64994  66.1402 157.8841 0145322 168.8002 191.6356 13.71699345629195
Epoch: 2026-06-20T08:59Z
TLE epoch observation values (Epoch: 2026-06-20T08:59:44.974Z)
Latitude
-0.00001°
Longitude
114.35635°
Altitude
1,100.481 km
Speed
7.25 km/s
True Right ascension
10h 31m 32s
True Declination
0° 00' 00"
Sunlit
Object was in daylight at epoch
Visualization orbit readout
Latitude
Unknown
Longitude
Unknown
Altitude
Unknown
Speed
Unknown
Apparent Right ascension
Unknown
Apparent Declination
Unknown
Sunlit
N/A
Visualization observer readout
Local Sidereal Time
07:13:52
Azimuth
Unknown
Elevation
Unknown
Doppler factor
Unknown
Orbital elements
Apogee altitude
1,099.064 km
Perigee altitude
884.856 km
Semi-major axis
7,370.097 km
Eccentricity
0.01453
Inclination
66.1402°
RAAN
157.8841°
Arg. of periapsis
168.8002°
True anomaly
191.30561°
Mean anomaly
191.6356°
Eccentric anomaly
191.47003°
Mean motion
3.43031 °/min
Orbital period
104.95 mins
BSTAR
0.00023629
Loading maneuver chart data...
Computing Atmospheric mass density...
Loading historical data...
Loading historical data...
Loading historical data...
Loading historical data...
Loading historical data...
Loading historical data...
Loading historical data...

Documentation

Showing up to 5 results
|